Regional Weather Roundup
Issued by NWS

Home | Current Version | Previous Version | Graphics & Text | Print | Product List | Glossary Off
Versions: 1 2 3 4 5 6 7 8 9 10 11 12 13 14 15 16 17 18 19 20 21 22 23 24 25 26 27 28 29 30 31 32 33 34 35 36 37 38 39 40 41 42 43 44 45 46 47 48 49 50

413
ASUS43 KDMX 061208
RWRIA

WEATHER ROUNDUP FOR IOWA
NATIONAL WEATHER SERVICE DES MOINES IA
700 AM CDT FRI MAY 06 2016

NOTE: "FAIR" INDICATES FEW OR NO CLOUDS BELOW 12,000 FEET WITH NO
SIGNIFICANT WEATHER AND/OR OBSTRUCTIONS TO VISIBILITY.

* - THESE STATIONS ARE NOT NWS STATIONS...THUS NOT UNDER NWS
QUALITY CONTROL.  THEY ALSO DO NOT REPORT WEATHER SUCH
AS PRECIPITATION OR FOG.

IAZ001>003-012>014-020>022-031>034-043>046-061300-
   NORTHWEST IOWA

CITY           SKY/WX    TMP DP  RH WIND       PRES   REMARKS
CARROLL *      CLEAR     57  43  58 SW14      29.98R
CHEROKEE *     CLEAR     49  44  82 CALM      29.97R
DENISON *      CLEAR     54  43  66 CALM      29.98R
LE MARS *      CLEAR     52  45  76 S3        29.97R
ORANGE CITY *  CLEAR     52  45  76 SW5       29.96R
SHELDON *      CLEAR     54  43  66 S9        29.94R
STORM LAKE *   CLEAR     55  43  62 SW8       29.98S
$$

IAZ055>058-069>071-079>083-090>094-061300-
   SOUTHWEST IOWA

CITY           SKY/WX    TMP DP  RH WIND       PRES   REMARKS
ATLANTIC *     CLEAR     46  43  87 SW3       30.02R
AUDUBON *      CLEAR     46  41  81 CALM      30.02R
CLARINDA *       N/A     48  45  87 MISG      30.05R
COUNCIL BLFS * CLEAR     57  45  62 SW8       30.01S
CRESTON *      CLEAR     54  43  66 SW7       30.04R
HARLAN  *      CLEAR     48  43  81 S3        30.04R
LAMONI         CLEAR     52  42  69 SW9       30.04R
6HR MIN TEMP:  49; 6HR MAX TEMP:  54;

RED OAK *      CLEAR     46  43  87 CALM      30.03R
SHENANDOAH *   CLEAR     50  45  81 SE3       30.03S
$$

IAZ047>049-059>061-072>074-084-061300-
   CENTRAL IOWA

CITY           SKY/WX    TMP DP  RH WIND       PRES   REMARKS
ANKENY *       CLEAR     50  45  81 CALM      30.00R
BOONE *        CLEAR     54  43  66 SW8       29.97S
CHARITON *     CLEAR     52  41  66 SW8       30.02S
GRINNELL*      CLEAR     52  41  66 SW3       30.01R
KNOXVILLE *    CLEAR     54  39  58 SW9       30.00R
MARSHALLTOWN   CLEAR     50  41  71 SW7       29.98R
6HR MIN TEMP:  47; 6HR MAX TEMP:  55;

NEWTON *       CLEAR     52  43  71 SW8       30.00R
PERRY *          N/A     52  45  76 S3        29.99S
$$

IAZ004>006-015-016-023>025-035-036-061300-
   NORTH CENTRAL IOWA

CITY           SKY/WX    TMP DP  RH WIND       PRES   REMARKS
ALGONA *       CLEAR     55  43  62 SW10      29.96R
CLARION *      CLEAR     50  43  76 S7        29.96F
FORT DODGE *   CLEAR     52  39  62 SW3       29.97S
MASON CITY     CLEAR     58  42  55 W13       29.96R
6HR MIN TEMP:  52; 6HR MAX TEMP:  59;

FOREST CITY *  CLEAR     50  41  71 CALM      29.96R
WEBSTER CITY * CLEAR     50  45  81 SW7       29.95S
IOWA FALLS *     N/A     54  43  66 W6        29.98R
$$

IAZ007>011-017>019-026>030-037>042-050>054-066-061300-
   NORTHEAST IOWA

CITY           SKY/WX    TMP DP  RH WIND       PRES   REMARKS
CEDAR RAPIDS   SUNNY     50  40  68 SW5       29.99R
6HR MIN TEMP:  47; 6HR MAX TEMP:  51;

CHARLES CITY * SUNNY     50  43  76 SW5       29.96R
CLINTON *      SUNNY     47  43  86 S6        30.00R
DECORAH *      MOSUNNY   54  39  58 SW6       29.94R
DUBUQUE        PTSUNNY   49  42  77 SW5       29.97R
6HR MIN TEMP:  46; 6HR MAX TEMP:  52;

MONTICELLO *   SUNNY     50  41  71 S3        29.98R
OELWEIN *      SUNNY     48  43  81 S5        29.97S
WATERLOO       SUNNY     52  41  66 SW5       29.96R
6HR MIN TEMP:  50; 6HR MAX TEMP:  57;

$$

IAZ064-065-067-068-078-061300-
   EAST CENTRAL IOWA

CITY           SKY/WX    TMP DP  RH WIND       PRES   REMARKS
DAVENPORT      SUNNY     51  39  63 SW7       30.01R
6HR MIN TEMP:  46; 6HR MAX TEMP:  51;

IOWA CITY      SUNNY     48  41  76 CALM      30.02R
6HR MIN TEMP:  44; 6HR MAX TEMP:  50;

MT. PLEASANT * SUNNY     51  43  74 SW6       30.03R
MUSCATINE *    SUNNY     50  41  71 S3        30.02R
QUAD CITIES    SUNNY     47  42  83 CALM      30.00R
6HR MIN TEMP:  42; 6HR MAX TEMP:  47;

$$

IAZ062-063-075>077-085>089-095>099-061300-
   SOUTHEAST IOWA

CITY           SKY/WX    TMP DP  RH WIND       PRES   REMARKS
BURLINGTON     SUNNY     49  42  77 SW6       30.03R
6HR MIN TEMP:  46; 6HR MAX TEMP:  52;

FAIRFIELD *    SUNNY     52  37  58 SW8       30.02R
FORT MADISON * SUNNY     52  37  58 SW3       30.04R
KEOKUK *       SUNNY     50  43  76 CALM      30.03S
OSKALOOSA *      N/A     52  39  63 SW10      30.02R
OTTUMWA        CLEAR     52  38  58 SW8       30.02R
6HR MIN TEMP:  48; 6HR MAX TEMP:  52;

WASHINGTON *   SUNNY     52  41  66 SW9       30.03R
$$

ABBREVIATIONS USED IN REMARKS
   TC - TEMPERATURES IN CELSIUS
  WCI - WIND CHILL INDEX
   HX - HEAT INDEX
  VSB - VISIBILITY
$$





USA.gov is the U.S. government's official web portal to all federal, state and local government web resources and services.